Back to catalog

ONEWEB-0572

AliveCommunicationsPO
NORAD 55151·PAYLOAD·🇬🇧 United Kingdom

Launched Jan 10, 2023 from Cape Canaveral Space Force Station

Loading…

Next Passes (next 24 hours)

TLE

FreshSource: CelesTrak SupGP

Epoch: Sep 14, 2026, 07:19 UTC

1 55151C 23004M   26257.30503889 -.00003082  00000+0 -79470-2 0  2574
2 55151  87.9206 348.1676 0001728 103.7737 333.7635 13.17654900    19

Track ONEWEB-0572 in real time with AllMySat

Download on the App Store